#datetime,building,power
2023-06-08T00:00:00,mfh,32.10
2023-06-08T00:01:00,mfh,32.21
2023-06-08T00:02:00,mfh,32.23
2023-06-08T00:03:00,mfh,33.08
2023-06-08T00:04:00,mfh,32.04
2023-06-08T00:05:00,mfh,34.03
2023-06-08T00:06:00,mfh,33.27
2023-06-08T00:07:00,mfh,33.22
2023-06-08T00:08:00,mfh,33.76
2023-06-08T00:09:00,mfh,33.25
2023-06-08T00:10:00,mfh,33.90
2023-06-08T00:11:00,mfh,32.34
2023-06-08T00:12:00,mfh,32.33
2023-06-08T00:13:00,mfh,32.49
2023-06-08T00:14:00,mfh,32.41
2023-06-08T00:15:00,mfh,31.90
2023-06-08T00:16:00,mfh,31.82
2023-06-08T00:17:00,mfh,31.80
2023-06-08T00:18:00,mfh,32.39
2023-06-08T00:19:00,mfh,32.54
2023-06-08T00:20:00,mfh,32.61
2023-06-08T00:21:00,mfh,32.62
2023-06-08T00:22:00,mfh,32.42
2023-06-08T00:23:00,mfh,32.33
2023-06-08T00:24:00,mfh,31.67
2023-06-08T00:25:00,mfh,31.75
2023-06-08T00:26:00,mfh,31.83
2023-06-08T00:27:00,mfh,32.83
2023-06-08T00:28:00,mfh,32.24
2023-06-08T00:29:00,mfh,32.25
2023-06-08T00:30:00,mfh,32.33
2023-06-08T00:31:00,mfh,32.30
2023-06-08T00:32:00,mfh,32.37
2023-06-08T00:33:00,mfh,31.74
2023-06-08T00:34:00,mfh,31.59
2023-06-08T00:35:00,mfh,31.61
2023-06-08T00:36:00,mfh,31.53
2023-06-08T00:37:00,mfh,32.20
2023-06-08T00:38:00,mfh,32.26
2023-06-08T00:39:00,mfh,32.52
2023-06-08T00:40:00,mfh,32.20
2023-06-08T00:41:00,mfh,32.32
2023-06-08T00:42:00,mfh,32.36
2023-06-08T00:43:00,mfh,31.66
2023-06-08T00:44:00,mfh,31.63
2023-06-08T00:45:00,mfh,31.81
2023-06-08T00:46:00,mfh,32.38
2023-06-08T00:47:00,mfh,32.46
2023-06-08T00:48:00,mfh,32.64
2023-06-08T00:49:00,mfh,32.54
2023-06-08T00:50:00,mfh,32.55
2023-06-08T00:51:00,mfh,32.44
2023-06-08T00:52:00,mfh,31.71
2023-06-08T00:53:00,mfh,31.75
2023-06-08T00:54:00,mfh,32.11
2023-06-08T00:55:00,mfh,32.23
2023-06-08T00:56:00,mfh,32.25
2023-06-08T00:57:00,mfh,33.23
2023-06-08T00:58:00,mfh,32.27
2023-06-08T00:59:00,mfh,32.35
2023-06-08T01:00:00,mfh,32.41
2023-06-08T01:01:00,mfh,31.69
2023-06-08T01:02:00,mfh,31.71
2023-06-08T01:03:00,mfh,31.61
2023-06-08T01:04:00,mfh,32.53
2023-06-08T01:05:00,mfh,32.18
2023-06-08T01:06:00,mfh,32.55
2023-06-08T01:07:00,mfh,32.14
2023-06-08T01:08:00,mfh,32.25
2023-06-08T01:09:00,mfh,32.36
2023-06-08T01:10:00,mfh,31.77
2023-06-08T01:11:00,mfh,31.89
2023-06-08T01:12:00,mfh,32.05
2023-06-08T01:13:00,mfh,32.71
2023-06-08T01:14:00,mfh,32.64
2023-06-08T01:15:00,mfh,33.66
2023-06-08T01:16:00,mfh,32.67
2023-06-08T01:17:00,mfh,32.82
2023-06-08T01:18:00,mfh,32.72
2023-06-08T01:19:00,mfh,32.08
2023-06-08T01:20:00,mfh,31.94
2023-06-08T01:21:00,mfh,32.57
2023-06-08T01:22:00,mfh,31.93
2023-06-08T01:23:00,mfh,32.55
2023-06-08T01:24:00,mfh,32.47
2023-06-08T01:25:00,mfh,32.56
2023-06-08T01:26:00,mfh,32.48
2023-06-08T01:27:00,mfh,32.41
2023-06-08T01:28:00,mfh,31.65
2023-06-08T01:29:00,mfh,31.60
2023-06-08T01:30:00,mfh,31.64
2023-06-08T01:31:00,mfh,31.61
2023-06-08T01:32:00,mfh,32.95
2023-06-08T01:33:00,mfh,32.20
2023-06-08T01:34:00,mfh,32.52
2023-06-08T01:35:00,mfh,32.30
2023-06-08T01:36:00,mfh,32.38
2023-06-08T01:37:00,mfh,32.35
2023-06-08T01:38:00,mfh,31.60
2023-06-08T01:39:00,mfh,31.60
2023-06-08T01:40:00,mfh,31.57
2023-06-08T01:41:00,mfh,32.77
2023-06-08T01:42:00,mfh,32.38
2023-06-08T01:43:00,mfh,32.31
2023-06-08T01:44:00,mfh,32.39
2023-06-08T01:45:00,mfh,32.37
2023-06-08T01:46:00,mfh,32.52
2023-06-08T01:47:00,mfh,32.24
2023-06-08T01:48:00,mfh,32.23
2023-06-08T01:49:00,mfh,31.48
2023-06-08T01:50:00,mfh,32.00
2023-06-08T01:51:00,mfh,32.77
2023-06-08T01:52:00,mfh,32.24
2023-06-08T01:53:00,mfh,32.00
2023-06-08T01:54:00,mfh,32.38
2023-06-08T01:55:00,mfh,32.13
2023-06-08T01:56:00,mfh,32.35
2023-06-08T01:57:00,mfh,31.59
2023-06-08T01:58:00,mfh,31.59
2023-06-08T01:59:00,mfh,31.71
2023-06-08T02:00:00,mfh,32.25
2023-06-08T02:01:00,mfh,32.78
2023-06-08T02:02:00,mfh,32.35
2023-06-08T02:03:00,mfh,32.22
2023-06-08T02:04:00,mfh,32.13
2023-06-08T02:05:00,mfh,32.21
2023-06-08T02:06:00,mfh,31.51
2023-06-08T02:07:00,mfh,31.99
2023-06-08T02:08:00,mfh,31.45
2023-06-08T02:09:00,mfh,33.14
2023-06-08T02:10:00,mfh,32.15
2023-06-08T02:11:00,mfh,32.12
2023-06-08T02:12:00,mfh,32.74
2023-06-08T02:13:00,mfh,32.48
2023-06-08T02:14:00,mfh,32.24
2023-06-08T02:15:00,mfh,32.27
2023-06-08T02:16:00,mfh,31.74
2023-06-08T02:17:00,mfh,32.26
2023-06-08T02:18:00,mfh,32.34
2023-06-08T02:19:00,mfh,32.37
2023-06-08T02:20:00,mfh,32.41
2023-06-08T02:21:00,mfh,32.43
2023-06-08T02:22:00,mfh,32.65
2023-06-08T02:23:00,mfh,32.40
2023-06-08T02:24:00,mfh,31.68
2023-06-08T02:25:00,mfh,32.28
2023-06-08T02:26:00,mfh,32.47
2023-06-08T02:27:00,mfh,31.73
2023-06-08T02:28:00,mfh,32.95
2023-06-08T02:29:00,mfh,32.52
2023-06-08T02:30:00,mfh,32.58
2023-06-08T02:31:00,mfh,32.57
2023-06-08T02:32:00,mfh,32.48
2023-06-08T02:33:00,mfh,32.86
2023-06-08T02:34:00,mfh,33.17
2023-06-08T02:35:00,mfh,32.32
2023-06-08T02:36:00,mfh,32.23
2023-06-08T02:37:00,mfh,33.10
2023-06-08T02:38:00,mfh,32.11
2023-06-08T02:39:00,mfh,32.04
2023-06-08T02:40:00,mfh,32.09
2023-06-08T02:41:00,mfh,32.18
2023-06-08T02:42:00,mfh,31.57
2023-06-08T02:43:00,mfh,31.73
2023-06-08T02:44:00,mfh,31.64
2023-06-08T02:45:00,mfh,31.70
2023-06-08T02:46:00,mfh,32.30
2023-06-08T02:47:00,mfh,32.51
2023-06-08T02:48:00,mfh,32.45
2023-06-08T02:49:00,mfh,32.90
2023-06-08T02:50:00,mfh,32.67
2023-06-08T02:51:00,mfh,31.89
2023-06-08T02:52:00,mfh,31.88
2023-06-08T02:53:00,mfh,32.84
2023-06-08T02:54:00,mfh,31.76
2023-06-08T02:55:00,mfh,33.08
2023-06-08T02:56:00,mfh,32.45
2023-06-08T02:57:00,mfh,32.42
2023-06-08T02:58:00,mfh,32.54
2023-06-08T02:59:00,mfh,32.60
2023-06-08T03:00:00,mfh,32.52
2023-06-08T03:01:00,mfh,32.61
2023-06-08T03:02:00,mfh,31.75
2023-06-08T03:03:00,mfh,31.64
2023-06-08T03:04:00,mfh,32.29
2023-06-08T03:05:00,mfh,32.74
2023-06-08T03:06:00,mfh,32.53
2023-06-08T03:07:00,mfh,32.31
2023-06-08T03:08:00,mfh,32.21
2023-06-08T03:09:00,mfh,32.10
2023-06-08T03:10:00,mfh,31.54
2023-06-08T03:11:00,mfh,31.57
2023-06-08T03:12:00,mfh,33.06
2023-06-08T03:13:00,mfh,33.33
2023-06-08T03:14:00,mfh,34.03
2023-06-08T03:15:00,mfh,34.02
2023-06-08T03:16:00,mfh,34.34
2023-06-08T03:17:00,mfh,32.28
2023-06-08T03:18:00,mfh,32.46
2023-06-08T03:19:00,mfh,32.54
2023-06-08T03:20:00,mfh,31.81
2023-06-08T03:21:00,mfh,31.87
2023-06-08T03:22:00,mfh,39.84
2023-06-08T03:23:00,mfh,41.22
2023-06-08T03:24:00,mfh,41.49
2023-06-08T03:25:00,mfh,41.54
2023-06-08T03:26:00,mfh,41.55
2023-06-08T03:27:00,mfh,42.15
2023-06-08T03:28:00,mfh,42.10
2023-06-08T03:29:00,mfh,41.92
2023-06-08T03:30:00,mfh,41.66
2023-06-08T03:31:00,mfh,41.51
2023-06-08T03:32:00,mfh,42.23
2023-06-08T03:33:00,mfh,42.59
2023-06-08T03:34:00,mfh,42.11
2023-06-08T03:35:00,mfh,42.04
2023-06-08T03:36:00,mfh,42.64
2023-06-08T03:37:00,mfh,41.95
2023-06-08T03:38:00,mfh,41.27
2023-06-08T03:39:00,mfh,41.07
2023-06-08T03:40:00,mfh,41.06
2023-06-08T03:41:00,mfh,41.85
2023-06-08T03:42:00,mfh,41.81
2023-06-08T03:43:00,mfh,41.80
2023-06-08T03:44:00,mfh,42.15
2023-06-08T03:45:00,mfh,41.88
2023-06-08T03:46:00,mfh,41.72
2023-06-08T03:47:00,mfh,41.50
2023-06-08T03:48:00,mfh,41.80
2023-06-08T03:49:00,mfh,41.07
2023-06-08T03:50:00,mfh,41.18
2023-06-08T03:51:00,mfh,41.66
2023-06-08T03:52:00,mfh,41.88
2023-06-08T03:53:00,mfh,41.78
2023-06-08T03:54:00,mfh,42.14
2023-06-08T03:55:00,mfh,41.72
2023-06-08T03:56:00,mfh,41.01
2023-06-08T03:57:00,mfh,41.11
2023-06-08T03:58:00,mfh,41.23
2023-06-08T03:59:00,mfh,41.23
2023-06-08T04:00:00,mfh,41.87
2023-06-08T04:01:00,mfh,41.77
2023-06-08T04:02:00,mfh,41.99
2023-06-08T04:03:00,mfh,41.98
2023-06-08T04:04:00,mfh,41.83
2023-06-08T04:05:00,mfh,41.85
2023-06-08T04:06:00,mfh,41.07
2023-06-08T04:07:00,mfh,40.97
2023-06-08T04:08:00,mfh,40.96
2023-06-08T04:09:00,mfh,41.58
2023-06-08T04:10:00,mfh,41.56
2023-06-08T04:11:00,mfh,41.38
2023-06-08T04:12:00,mfh,41.68
2023-06-08T04:13:00,mfh,41.75
2023-06-08T04:14:00,mfh,41.85
2023-06-08T04:15:00,mfh,41.21
2023-06-08T04:16:00,mfh,41.18
2023-06-08T04:17:00,mfh,41.40
2023-06-08T04:18:00,mfh,41.81
2023-06-08T04:19:00,mfh,42.58
2023-06-08T04:20:00,mfh,42.07
2023-06-08T04:21:00,mfh,42.16
2023-06-08T04:22:00,mfh,42.10
2023-06-08T04:23:00,mfh,42.19
2023-06-08T04:24:00,mfh,42.17
2023-06-08T04:25:00,mfh,41.45
2023-06-08T04:26:00,mfh,41.59
2023-06-08T04:27:00,mfh,41.66
2023-06-08T04:28:00,mfh,41.54
2023-06-08T04:29:00,mfh,42.23
2023-06-08T04:30:00,mfh,42.12
2023-06-08T04:31:00,mfh,42.01
2023-06-08T04:32:00,mfh,42.20
2023-06-08T04:33:00,mfh,42.32
2023-06-08T04:34:00,mfh,42.04
2023-06-08T04:35:00,mfh,41.48
2023-06-08T04:36:00,mfh,42.78
2023-06-08T04:37:00,mfh,41.51
2023-06-08T04:38:00,mfh,42.16
2023-06-08T04:39:00,mfh,42.19
2023-06-08T04:40:00,mfh,42.23
2023-06-08T04:41:00,mfh,42.61
2023-06-08T04:42:00,mfh,42.16
2023-06-08T04:43:00,mfh,41.48
2023-06-08T04:44:00,mfh,41.41
2023-06-08T04:45:00,mfh,41.32
2023-06-08T04:46:00,mfh,41.42
2023-06-08T04:47:00,mfh,41.86
2023-06-08T04:48:00,mfh,41.86
2023-06-08T04:49:00,mfh,42.01
2023-06-08T04:50:00,mfh,41.93
2023-06-08T04:51:00,mfh,41.94
2023-06-08T04:52:00,mfh,42.14
2023-06-08T04:53:00,mfh,41.38
2023-06-08T04:54:00,mfh,41.41
2023-06-08T04:55:00,mfh,43.10
2023-06-08T04:56:00,mfh,41.59
2023-06-08T04:57:00,mfh,42.32
2023-06-08T04:58:00,mfh,42.19
2023-06-08T04:59:00,mfh,42.47
2023-06-08T05:00:00,mfh,42.17
2023-06-08T05:01:00,mfh,42.18
2023-06-08T05:02:00,mfh,41.93
2023-06-08T05:03:00,mfh,42.14
2023-06-08T05:04:00,mfh,41.34
2023-06-08T05:05:00,mfh,41.27
2023-06-08T05:06:00,mfh,42.33
2023-06-08T05:07:00,mfh,42.69
2023-06-08T05:08:00,mfh,42.51
2023-06-08T05:09:00,mfh,42.64
2023-06-08T05:10:00,mfh,42.70
2023-06-08T05:11:00,mfh,43.35
2023-06-08T05:12:00,mfh,42.12
2023-06-08T05:13:00,mfh,42.32
2023-06-08T05:14:00,mfh,42.22
2023-06-08T05:15:00,mfh,42.81
2023-06-08T05:16:00,mfh,43.12
2023-06-08T05:17:00,mfh,42.77
2023-06-08T05:18:00,mfh,42.79
2023-06-08T05:19:00,mfh,42.64
2023-06-08T05:20:00,mfh,42.60
2023-06-08T05:21:00,mfh,42.59
2023-06-08T05:22:00,mfh,41.96
2023-06-08T05:23:00,mfh,41.98
2023-06-08T05:24:00,mfh,41.90
2023-06-08T05:25:00,mfh,42.43
2023-06-08T05:26:00,mfh,42.60
2023-06-08T05:27:00,mfh,42.58
2023-06-08T05:28:00,mfh,42.60
2023-06-08T05:29:00,mfh,42.62
2023-06-08T05:30:00,mfh,42.59
2023-06-08T05:31:00,mfh,42.01
2023-06-08T05:32:00,mfh,42.45
2023-06-08T05:33:00,mfh,42.42
2023-06-08T05:34:00,mfh,43.02
2023-06-08T05:35:00,mfh,42.98
2023-06-08T05:36:00,mfh,43.04
2023-06-08T05:37:00,mfh,43.09
2023-06-08T05:38:00,mfh,42.22
2023-06-08T05:39:00,mfh,42.33
2023-06-08T05:40:00,mfh,41.63
2023-06-08T05:41:00,mfh,41.66
2023-06-08T05:42:00,mfh,42.32
2023-06-08T05:43:00,mfh,41.72
2023-06-08T05:44:00,mfh,42.45
2023-06-08T05:45:00,mfh,62.36
2023-06-08T05:46:00,mfh,62.80
2023-06-08T05:47:00,mfh,62.86
2023-06-08T05:48:00,mfh,63.58
2023-06-08T05:49:00,mfh,62.58
2023-06-08T05:50:00,mfh,62.03
2023-06-08T05:51:00,mfh,61.95
2023-06-08T05:52:00,mfh,61.93
2023-06-08T05:53:00,mfh,61.98
2023-06-08T05:54:00,mfh,62.52
2023-06-08T05:55:00,mfh,62.35
2023-06-08T05:56:00,mfh,62.45
2023-06-08T05:57:00,mfh,62.42
2023-06-08T05:58:00,mfh,62.93
2023-06-08T05:59:00,mfh,62.13
2023-06-08T06:00:00,mfh,61.11
2023-06-08T06:01:00,mfh,62.93
2023-06-08T06:02:00,mfh,62.81
2023-06-08T06:03:00,mfh,63.34
2023-06-08T06:04:00,mfh,63.28
2023-06-08T06:05:00,mfh,63.23
2023-06-08T06:06:00,mfh,63.24
2023-06-08T06:07:00,mfh,63.26
2023-06-08T06:08:00,mfh,63.48
2023-06-08T06:09:00,mfh,62.72
2023-06-08T06:10:00,mfh,63.31
2023-06-08T06:11:00,mfh,62.80
2023-06-08T06:12:00,mfh,63.43
2023-06-08T06:13:00,mfh,63.57
2023-06-08T06:14:00,mfh,65.06
2023-06-08T06:15:00,mfh,65.30
2023-06-08T06:16:00,mfh,65.30
2023-06-08T06:17:00,mfh,65.24
2023-06-08T06:18:00,mfh,65.68
2023-06-08T06:19:00,mfh,64.46
2023-06-08T06:20:00,mfh,62.99
2023-06-08T06:21:00,mfh,63.19
2023-06-08T06:22:00,mfh,63.03
2023-06-08T06:23:00,mfh,63.70
2023-06-08T06:24:00,mfh,64.15
2023-06-08T06:25:00,mfh,64.18
2023-06-08T06:26:00,mfh,63.82
2023-06-08T06:27:00,mfh,63.74
2023-06-08T06:28:00,mfh,63.19
2023-06-08T06:29:00,mfh,62.92
2023-06-08T06:30:00,mfh,62.98
2023-06-08T06:31:00,mfh,63.29
2023-06-08T06:32:00,mfh,64.00
2023-06-08T06:33:00,mfh,63.97
2023-06-08T06:34:00,mfh,63.80
2023-06-08T06:35:00,mfh,64.00
2023-06-08T06:36:00,mfh,63.91
2023-06-08T06:37:00,mfh,63.92
2023-06-08T06:38:00,mfh,64.30
2023-06-08T06:39:00,mfh,63.51
2023-06-08T06:40:00,mfh,63.59
2023-06-08T06:41:00,mfh,64.11
2023-06-08T06:42:00,mfh,64.10
2023-06-08T06:43:00,mfh,64.18
2023-06-08T06:44:00,mfh,64.32
2023-06-08T06:45:00,mfh,64.41
2023-06-08T06:46:00,mfh,64.72
2023-06-08T06:47:00,mfh,64.54
2023-06-08T06:48:00,mfh,64.18
2023-06-08T06:49:00,mfh,64.71
2023-06-08T06:50:00,mfh,64.14
2023-06-08T06:51:00,mfh,64.57
2023-06-08T06:52:00,mfh,65.03
2023-06-08T06:53:00,mfh,64.64
2023-06-08T06:54:00,mfh,64.69
2023-06-08T06:55:00,mfh,64.91
2023-06-08T06:56:00,mfh,65.42
2023-06-08T06:57:00,mfh,64.90
2023-06-08T06:58:00,mfh,64.20
2023-06-08T06:59:00,mfh,64.12
2023-06-08T07:00:00,mfh,64.15
2023-06-08T07:01:00,mfh,64.93
2023-06-08T07:02:00,mfh,64.84
2023-06-08T07:03:00,mfh,64.95
2023-06-08T07:04:00,mfh,65.35
2023-06-08T07:05:00,mfh,64.95
2023-06-08T07:06:00,mfh,65.08
2023-06-08T07:07:00,mfh,64.52
2023-06-08T07:08:00,mfh,64.86
2023-06-08T07:09:00,mfh,64.31
2023-06-08T07:10:00,mfh,64.99
2023-06-08T07:11:00,mfh,65.43
2023-06-08T07:12:00,mfh,65.16
2023-06-08T07:13:00,mfh,64.93
2023-06-08T07:14:00,mfh,64.91
2023-06-08T07:15:00,mfh,64.78
2023-06-08T07:16:00,mfh,64.74
2023-06-08T07:17:00,mfh,64.42
2023-06-08T07:18:00,mfh,64.62
2023-06-08T07:19:00,mfh,64.33
2023-06-08T07:20:00,mfh,64.53
2023-06-08T07:21:00,mfh,65.62
2023-06-08T07:22:00,mfh,66.34
2023-06-08T07:23:00,mfh,67.63
2023-06-08T07:24:00,mfh,65.68
2023-06-08T07:25:00,mfh,65.74
2023-06-08T07:26:00,mfh,65.94
2023-06-08T07:27:00,mfh,65.07
2023-06-08T07:28:00,mfh,65.17
2023-06-08T07:29:00,mfh,65.16
2023-06-08T07:30:00,mfh,65.85
2023-06-08T07:31:00,mfh,66.21
2023-06-08T07:32:00,mfh,65.70
2023-06-08T07:33:00,mfh,64.92
2023-06-08T07:34:00,mfh,65.40
2023-06-08T07:35:00,mfh,64.98
2023-06-08T07:36:00,mfh,65.40
2023-06-08T07:37:00,mfh,64.67
2023-06-08T07:38:00,mfh,64.93
2023-06-08T07:39:00,mfh,64.91
2023-06-08T07:40:00,mfh,65.65
2023-06-08T07:41:00,mfh,65.52
2023-06-08T07:42:00,mfh,65.64
2023-06-08T07:43:00,mfh,65.76
2023-06-08T07:44:00,mfh,65.89
2023-06-08T07:45:00,mfh,66.92
2023-06-08T07:46:00,mfh,66.69
2023-06-08T07:47:00,mfh,66.35
2023-06-08T07:48:00,mfh,66.48
2023-06-08T07:49:00,mfh,66.02
2023-06-08T07:50:00,mfh,66.37
2023-06-08T07:51:00,mfh,66.42
2023-06-08T07:52:00,mfh,66.56
2023-06-08T07:53:00,mfh,66.33
2023-06-08T07:54:00,mfh,67.00
2023-06-08T07:55:00,mfh,66.11
2023-06-08T07:56:00,mfh,66.06
2023-06-08T07:57:00,mfh,65.53
2023-06-08T07:58:00,mfh,65.28
2023-06-08T07:59:00,mfh,64.81
2023-06-08T08:00:00,mfh,65.31
2023-06-08T08:01:00,mfh,65.29
2023-06-08T08:02:00,mfh,66.19
2023-06-08T08:03:00,mfh,65.37
2023-06-08T08:04:00,mfh,65.38
2023-06-08T08:05:00,mfh,65.32
2023-06-08T08:06:00,mfh,65.98
2023-06-08T08:07:00,mfh,64.54
2023-06-08T08:08:00,mfh,64.64
2023-06-08T08:09:00,mfh,64.49
2023-06-08T08:10:00,mfh,65.29
2023-06-08T08:11:00,mfh,65.26
2023-06-08T08:12:00,mfh,65.19
2023-06-08T08:13:00,mfh,65.22
2023-06-08T08:14:00,mfh,65.17
2023-06-08T08:15:00,mfh,65.24
2023-06-08T08:16:00,mfh,65.29
2023-06-08T08:17:00,mfh,65.11
2023-06-08T08:18:00,mfh,64.57
2023-06-08T08:19:00,mfh,64.62
2023-06-08T08:20:00,mfh,64.95
2023-06-08T08:21:00,mfh,65.03
2023-06-08T08:22:00,mfh,65.15
2023-06-08T08:23:00,mfh,65.20
2023-06-08T08:24:00,mfh,65.83
2023-06-08T08:25:00,mfh,65.60
2023-06-08T08:26:00,mfh,64.76
2023-06-08T08:27:00,mfh,64.64
2023-06-08T08:28:00,mfh,64.58
2023-06-08T08:29:00,mfh,65.46
2023-06-08T08:30:00,mfh,65.12
2023-06-08T08:31:00,mfh,65.14
2023-06-08T08:32:00,mfh,65.23
2023-06-08T08:33:00,mfh,65.42
2023-06-08T08:34:00,mfh,65.40
2023-06-08T08:35:00,mfh,65.29
2023-06-08T08:36:00,mfh,64.61
2023-06-08T08:37:00,mfh,64.71
2023-06-08T08:38:00,mfh,64.80
2023-06-08T08:39:00,mfh,65.70
2023-06-08T08:40:00,mfh,65.42
2023-06-08T08:41:00,mfh,66.15
2023-06-08T08:42:00,mfh,65.99
2023-06-08T08:43:00,mfh,65.87
2023-06-08T08:44:00,mfh,66.52
2023-06-08T08:45:00,mfh,65.85
2023-06-08T08:46:00,mfh,65.11
2023-06-08T08:47:00,mfh,65.54
2023-06-08T08:48:00,mfh,65.17
2023-06-08T08:49:00,mfh,65.87
2023-06-08T08:50:00,mfh,66.08
2023-06-08T08:51:00,mfh,65.87
2023-06-08T08:52:00,mfh,66.04
2023-06-08T08:53:00,mfh,66.98
2023-06-08T08:54:00,mfh,67.14
2023-06-08T08:55:00,mfh,66.30
2023-06-08T08:56:00,mfh,67.07
2023-06-08T08:57:00,mfh,66.15
2023-06-08T08:58:00,mfh,66.67
2023-06-08T08:59:00,mfh,66.01
2023-06-08T09:00:00,mfh,66.06
2023-06-08T09:01:00,mfh,66.28
2023-06-08T09:02:00,mfh,66.13
2023-06-08T09:03:00,mfh,66.42
2023-06-08T09:04:00,mfh,66.35
2023-06-08T09:05:00,mfh,65.75
2023-06-08T09:06:00,mfh,65.66
2023-06-08T09:07:00,mfh,65.48
2023-06-08T09:08:00,mfh,66.07
2023-06-08T09:09:00,mfh,66.05
2023-06-08T09:10:00,mfh,66.12
2023-06-08T09:11:00,mfh,66.18
2023-06-08T09:12:00,mfh,67.36
2023-06-08T09:13:00,mfh,67.43
2023-06-08T09:14:00,mfh,67.11
2023-06-08T09:15:00,mfh,66.08
2023-06-08T09:16:00,mfh,65.93
2023-06-08T09:17:00,mfh,66.32
2023-06-08T09:18:00,mfh,67.05
2023-06-08T09:19:00,mfh,66.91
2023-06-08T09:20:00,mfh,67.68
2023-06-08T09:21:00,mfh,67.16
2023-06-08T09:22:00,mfh,67.02
2023-06-08T09:23:00,mfh,67.20
2023-06-08T09:24:00,mfh,66.36
2023-06-08T09:25:00,mfh,66.57
2023-06-08T09:26:00,mfh,68.00
2023-06-08T09:27:00,mfh,68.55
2023-06-08T09:28:00,mfh,68.52
2023-06-08T09:29:00,mfh,65.73
2023-06-08T09:30:00,mfh,65.96
2023-06-08T09:31:00,mfh,64.42
2023-06-08T09:32:00,mfh,63.63
2023-06-08T09:33:00,mfh,63.68
2023-06-08T09:34:00,mfh,63.70
2023-06-08T09:35:00,mfh,63.66
2023-06-08T09:36:00,mfh,64.25
2023-06-08T09:37:00,mfh,64.12
2023-06-08T09:38:00,mfh,64.24
2023-06-08T09:39:00,mfh,64.16
2023-06-08T09:40:00,mfh,65.81
2023-06-08T09:41:00,mfh,64.19
2023-06-08T09:42:00,mfh,63.58
2023-06-08T09:43:00,mfh,64.08
2023-06-08T09:44:00,mfh,63.59
2023-06-08T09:45:00,mfh,63.47
2023-06-08T09:46:00,mfh,64.00
2023-06-08T09:47:00,mfh,64.07
2023-06-08T09:48:00,mfh,64.06
2023-06-08T09:49:00,mfh,64.03
2023-06-08T09:50:00,mfh,64.18
2023-06-08T09:51:00,mfh,63.42
2023-06-08T09:52:00,mfh,63.17
2023-06-08T09:53:00,mfh,63.14
2023-06-08T09:54:00,mfh,63.83
2023-06-08T09:55:00,mfh,63.79
2023-06-08T09:56:00,mfh,63.38
2023-06-08T09:57:00,mfh,62.96
2023-06-08T09:58:00,mfh,62.79
2023-06-08T09:59:00,mfh,62.68
2023-06-08T10:00:00,mfh,62.13
2023-06-08T10:01:00,mfh,62.19
2023-06-08T10:02:00,mfh,62.23
2023-06-08T10:03:00,mfh,64.11
2023-06-08T10:04:00,mfh,66.10
2023-06-08T10:05:00,mfh,65.67
2023-06-08T10:06:00,mfh,63.31
2023-06-08T10:07:00,mfh,62.76
2023-06-08T10:08:00,mfh,62.45
2023-06-08T10:09:00,mfh,62.89
2023-06-08T10:10:00,mfh,62.38
2023-06-08T10:11:00,mfh,62.84
2023-06-08T10:12:00,mfh,63.10
2023-06-08T10:13:00,mfh,63.51
2023-06-08T10:14:00,mfh,62.97
2023-06-08T10:15:00,mfh,63.06
2023-06-08T10:16:00,mfh,62.97
2023-06-08T10:17:00,mfh,63.58
2023-06-08T10:18:00,mfh,63.47
2023-06-08T10:19:00,mfh,62.32
2023-06-08T10:20:00,mfh,64.06
2023-06-08T10:21:00,mfh,62.54
2023-06-08T10:22:00,mfh,63.11
2023-06-08T10:23:00,mfh,63.06
2023-06-08T10:24:00,mfh,62.89
2023-06-08T10:25:00,mfh,63.18
2023-06-08T10:26:00,mfh,63.22
2023-06-08T10:27:00,mfh,62.51
2023-06-08T10:28:00,mfh,62.38
2023-06-08T10:29:00,mfh,62.53
2023-06-08T10:30:00,mfh,62.46
2023-06-08T10:31:00,mfh,62.98
2023-06-08T10:32:00,mfh,63.45
2023-06-08T10:33:00,mfh,63.13
2023-06-08T10:34:00,mfh,63.60
2023-06-08T10:35:00,mfh,63.75
2023-06-08T10:36:00,mfh,63.29
2023-06-08T10:37:00,mfh,62.51
2023-06-08T10:38:00,mfh,62.59
2023-06-08T10:39:00,mfh,62.88
2023-06-08T10:40:00,mfh,63.50
2023-06-08T10:41:00,mfh,63.46
2023-06-08T10:42:00,mfh,63.48
2023-06-08T10:43:00,mfh,63.40
2023-06-08T10:44:00,mfh,63.20
2023-06-08T10:45:00,mfh,63.35
2023-06-08T10:46:00,mfh,62.26
2023-06-08T10:47:00,mfh,62.42
2023-06-08T10:48:00,mfh,62.49
2023-06-08T10:49:00,mfh,63.85
2023-06-08T10:50:00,mfh,63.47
2023-06-08T10:51:00,mfh,63.38
2023-06-08T10:52:00,mfh,63.45
2023-06-08T10:53:00,mfh,63.31
2023-06-08T10:54:00,mfh,63.52
2023-06-08T10:55:00,mfh,62.85
2023-06-08T10:56:00,mfh,62.98
2023-06-08T10:57:00,mfh,62.69
2023-06-08T10:58:00,mfh,63.51
2023-06-08T10:59:00,mfh,63.51
2023-06-08T11:00:00,mfh,63.60
2023-06-08T11:01:00,mfh,63.56
2023-06-08T11:02:00,mfh,63.74
2023-06-08T11:03:00,mfh,62.94
2023-06-08T11:04:00,mfh,62.89
2023-06-08T11:05:00,mfh,63.51
2023-06-08T11:06:00,mfh,62.92
2023-06-08T11:07:00,mfh,63.49
2023-06-08T11:08:00,mfh,63.27
2023-06-08T11:09:00,mfh,64.54
2023-06-08T11:10:00,mfh,63.82
2023-06-08T11:11:00,mfh,63.50
2023-06-08T11:12:00,mfh,63.54
2023-06-08T11:13:00,mfh,62.61
2023-06-08T11:14:00,mfh,62.55
2023-06-08T11:15:00,mfh,62.61
2023-06-08T11:16:00,mfh,63.10
2023-06-08T11:17:00,mfh,63.90
2023-06-08T11:18:00,mfh,63.90
2023-06-08T11:19:00,mfh,63.58
2023-06-08T11:20:00,mfh,63.83
2023-06-08T11:21:00,mfh,63.56
2023-06-08T11:22:00,mfh,62.92
2023-06-08T11:23:00,mfh,63.07
2023-06-08T11:24:00,mfh,63.10
2023-06-08T11:25:00,mfh,63.65
2023-06-08T11:26:00,mfh,65.15
2023-06-08T11:27:00,mfh,63.65
2023-06-08T11:28:00,mfh,63.68
2023-06-08T11:29:00,mfh,64.44
2023-06-08T11:30:00,mfh,63.32
2023-06-08T11:31:00,mfh,62.83
2023-06-08T11:32:00,mfh,62.99
2023-06-08T11:33:00,mfh,62.96
2023-06-08T11:34:00,mfh,63.41
2023-06-08T11:35:00,mfh,64.70
2023-06-08T11:36:00,mfh,64.21
2023-06-08T11:37:00,mfh,63.91
2023-06-08T11:38:00,mfh,64.70
2023-06-08T11:39:00,mfh,64.65
2023-06-08T11:40:00,mfh,63.91
2023-06-08T11:41:00,mfh,63.87
2023-06-08T11:42:00,mfh,63.83
2023-06-08T11:43:00,mfh,64.44
2023-06-08T11:44:00,mfh,64.41
2023-06-08T11:45:00,mfh,64.74
2023-06-08T11:46:00,mfh,64.14
2023-06-08T11:47:00,mfh,64.46
2023-06-08T11:48:00,mfh,64.22
2023-06-08T11:49:00,mfh,63.29
2023-06-08T11:50:00,mfh,63.80
2023-06-08T11:51:00,mfh,63.41
2023-06-08T11:52:00,mfh,63.20
2023-06-08T11:53:00,mfh,64.10
2023-06-08T11:54:00,mfh,64.16
2023-06-08T11:55:00,mfh,63.93
2023-06-08T11:56:00,mfh,64.02
2023-06-08T11:57:00,mfh,63.75
2023-06-08T11:58:00,mfh,63.01
2023-06-08T11:59:00,mfh,63.13
2023-06-08T12:00:00,mfh,63.06
2023-06-08T12:01:00,mfh,62.93
2023-06-08T12:02:00,mfh,64.10
2023-06-08T12:03:00,mfh,64.03
2023-06-08T12:04:00,mfh,63.74
2023-06-08T12:05:00,mfh,63.79
2023-06-08T12:06:00,mfh,63.81
2023-06-08T12:07:00,mfh,63.94
2023-06-08T12:08:00,mfh,63.02
2023-06-08T12:09:00,mfh,63.06
2023-06-08T12:10:00,mfh,63.13
2023-06-08T12:11:00,mfh,63.92
2023-06-08T12:12:00,mfh,64.09
2023-06-08T12:13:00,mfh,65.25
2023-06-08T12:14:00,mfh,64.74
2023-06-08T12:15:00,mfh,66.17
2023-06-08T12:16:00,mfh,65.93
2023-06-08T12:17:00,mfh,65.93
2023-06-08T12:18:00,mfh,65.81
2023-06-08T12:19:00,mfh,65.03
2023-06-08T12:20:00,mfh,66.51
2023-06-08T12:21:00,mfh,65.86
2023-06-08T12:22:00,mfh,65.94
2023-06-08T12:23:00,mfh,66.62
2023-06-08T12:24:00,mfh,66.00
2023-06-08T12:25:00,mfh,67.99
2023-06-08T12:26:00,mfh,64.94
2023-06-08T12:27:00,mfh,65.60
2023-06-08T12:28:00,mfh,65.66
2023-06-08T12:29:00,mfh,66.67
2023-06-08T12:30:00,mfh,67.21
2023-06-08T12:31:00,mfh,67.41
2023-06-08T12:32:00,mfh,67.87
2023-06-08T12:33:00,mfh,68.03
2023-06-08T12:34:00,mfh,67.36
2023-06-08T12:35:00,mfh,64.93
2023-06-08T12:36:00,mfh,63.70
2023-06-08T12:37:00,mfh,64.21
2023-06-08T12:38:00,mfh,65.21
2023-06-08T12:39:00,mfh,65.03
2023-06-08T12:40:00,mfh,65.23
2023-06-08T12:41:00,mfh,65.50
2023-06-08T12:42:00,mfh,65.36
2023-06-08T12:43:00,mfh,65.71
2023-06-08T12:44:00,mfh,64.19
2023-06-08T12:45:00,mfh,64.19
2023-06-08T12:46:00,mfh,63.97
2023-06-08T12:47:00,mfh,64.75
2023-06-08T12:48:00,mfh,65.03
2023-06-08T12:49:00,mfh,64.55
2023-06-08T12:50:00,mfh,64.33
2023-06-08T12:51:00,mfh,64.30
2023-06-08T12:52:00,mfh,64.62
2023-06-08T12:53:00,mfh,64.69
2023-06-08T12:54:00,mfh,63.87
2023-06-08T12:55:00,mfh,64.01
2023-06-08T12:56:00,mfh,64.78
2023-06-08T12:57:00,mfh,64.79
2023-06-08T12:58:00,mfh,64.50
2023-06-08T12:59:00,mfh,64.72
2023-06-08T13:00:00,mfh,64.37
2023-06-08T13:01:00,mfh,63.87
2023-06-08T13:02:00,mfh,63.19
2023-06-08T13:03:00,mfh,63.37
2023-06-08T13:04:00,mfh,62.64
2023-06-08T13:05:00,mfh,63.17
2023-06-08T13:06:00,mfh,63.50
2023-06-08T13:07:00,mfh,64.05
2023-06-08T13:08:00,mfh,63.99
2023-06-08T13:09:00,mfh,64.25
2023-06-08T13:10:00,mfh,64.33
2023-06-08T13:11:00,mfh,63.60
2023-06-08T13:12:00,mfh,63.67
2023-06-08T13:13:00,mfh,63.91
2023-06-08T13:14:00,mfh,64.69
2023-06-08T13:15:00,mfh,64.86
2023-06-08T13:16:00,mfh,65.66
2023-06-08T13:17:00,mfh,64.64
2023-06-08T13:18:00,mfh,64.91